Regional Weather Roundup
Issued by NWS

Home | Current Version | Previous Version | Text Only | Print | Product List | Glossary On
Versions: 1 2 3 4 5 6 7 8 9 10 11 12 13 14 15 16 17 18 19 20 21 22 23 24 25 26 27 28 29 30 31 32 33 34 35 36 37 38 39 40 41 42 43 44 45 46 47 48 49 50
000
ASUS43 KLOT 162258
RWRIL

ILLINOIS REGIONAL WEATHER ROUNDUP
NATIONAL WEATHER SERVICE CHICAGO/ROMEOVILLE IL
600 PM CDT TUE SEP 16 2014

NOTE: "FAIR" INDICATES FEW OR NO CLOUDS BELOW 12,000 FEET WITH NO
SIGNIFICANT WEATHER AND/OR OBSTRUCTIONS TO VISIBILITY.

* THESE STATIONS ARE NOT UNDER NWS QUALITY CONTROL. THEY ALSO MAY NOT
  REPORT WEATHER SUCH AS PRECIPITATION OR FOG.

ILZ001-002-007-009-015-016-024-170000-
NORTHWEST ILLINOIS

CITY           SKY/WX    TMP DP  RH WIND       PRES   REMARKS
MOLINE         SUNNY     67  42  40 CALM      30.10F
$$

ILZ003-004-008-010-011-017-018-170000-
NORTH CENTRAL ILLINOIS

CITY           SKY/WX    TMP DP  RH WIND       PRES   REMARKS
ROCKFORD       NOT AVBL
$$

ILZ005-006-012>014-019>023-170000-
NORTHEAST ILLINOIS

CITY           SKY/WX    TMP DP  RH WIND       PRES   REMARKS
CHICAGO-OHARE  SUNNY     68  40  35 W9        30.09F
CHICAGO-MIDWAY MOSUNNY   67  40  37 NW10      30.09F
AURORA         SUNNY     65  41  41 NW3       30.10F
WAUKEGAN       SUNNY     59  44  57 E7        30.10S
DUPAGE AIRPORT SUNNY     65  42  43 W7        30.09F
WHEELING       SUNNY     63  46  54 E8        30.12S
NORTHERLY ISL    N/A     61  50  67 E6          N/A
$$

LMZ740>746-170000-
SOUTHERN LAKE MICHIGAN

STATION/POSITION SKY/WX   TEMP    WIND        PRES    VSBY  WAVE
                          AIR SEA DIR/SP/G                  HT/PER
                          (F)     (DEG/KT/KT) (MB)    (MI)  (FT/S)
SOUTHERN BUOY              58 65   40/  4/  6 1020.3F         1/ 5
WAUKEGAN HARBOR            60     120/  5/  7   N/A
HARRISON CRIB              60      80/  9/ 10   N/A
BURNHAM HARBOR             61      60/  5/  6   N/A
CALUMET HARBOR             61      60/  7/  8 1018.1F
MICHIGAN CITY              60      10/  6/  7   N/A
MICHIGAN CITY 6N           61 65   60/  4/  6   N/A           1/ 4
ST. JOSEPH                 60 67  340/  4/  8   N/A           2/ 4
$$

ILZ025>027-034>036-040-047-049-050-058-095>099-170000-
WEST-CENTRAL ILLINOIS

CITY           SKY/WX    TMP DP  RH WIND       PRES   REMARKS
$$

ILZ028>032-037-038-041>044-048-051>054-059>061-170000-
CENTRAL ILLINOIS

CITY           SKY/WX    TMP DP  RH WIND       PRES   REMARKS
PEORIA         NOT AVBL
SPRINGFIELD    SUNNY     67  49  52 SE3       30.10F
TAYLORVILLE    NOT AVBL
$$

ILZ033-039-045-046-055>057-062-063-170000-
EAST-CENTRAL ILLINOIS

CITY           SKY/WX    TMP DP  RH WIND       PRES   REMARKS
MATTOON        MOSUNNY   64  52  64 VRB3      30.09F
$$

ILZ079-100>102-170000-
SOUTHWEST ILLINOIS

CITY           SKY/WX    TMP DP  RH WIND       PRES   REMARKS
CAHOKIA*       SUNNY     66  52  60 E6        30.11F
$$

ILZ064>066-069>071-074>076-080>082-084>086-088>090-092>094-170000-
SOUTH-CENTRAL ILLINOIS

CITY           SKY/WX    TMP DP  RH WIND       PRES   REMARKS
CARBONDALE     CLOUDY    62  53  72 NE3       30.12F
MARION         CLOUDY    63  54  72 NE6       30.13F
$$

ILZ067-068-072-073-078-083-087-091-170000-
SOUTHEAST ILLINOIS

CITY           SKY/WX    TMP DP  RH WIND       PRES   REMARKS
$$

ABBREVIATIONS USED IN REMARKS
   TC - TEMPERATURE IN CELSIUS
  WCI - WIND CHILL INDEX
   HX - HEAT INDEX
  VSB - VISIBILITY
$$



USA.gov is the U.S. government's official web portal to all federal, state and local government web resources and services.